Flag Weather past 2 weeks in Utsunomiya, Japan

Now
49 °F

Cool.


Feels Like: 46 °F
Forecast: 47 / 50 °F
Wind: 8 mph from North

Location: Mito

Current Time: Nov 26, 2014 at 6:05:32 AM

Latest Report: Nov 26, 2014 at 5:00 AM


Visibility: N/A

Pressure: 30.00 "Hg

Humidity: 90%

Dew point: 47 °F

Location of UtsunomiyaLocation

Historic Weather in Utsunomiya — Graph

°F

Utsunomiya temperature yesterday

Maximum temperature yesterday: 52 °F (at 12:00 AM)
Minimum temperature yesterday: 48 °F (at 5:00 AM)
Average temperature yesterday: 51 °F

Past Weeks' High & Low Weather Summary

 TemperatureHumidityPressure
High67 °F (Nov 22, 2:00 PM)98% (Nov 12, 9:00 PM)30.36 "Hg (Nov 12, 9:00 PM)
Low34 °F (Nov 16, 6:00 AM)20% (Nov 13, 1:00 PM)29.60 "Hg (Nov 12, 4:00 PM)
Average50 °F73%30.08 "Hg
* Reported Nov 11 4:00 AM — Nov 26 4:00 AM, Utsunomiya, Weather by CustomWeather, © 2014

Note: Actual official high and low records may vary slightly from our data, if they occured in-between our weather recording intervals... More about our weather records

Advertising

Utsunomiya weather history for previous 24 hours

 ConditionsComfort  
Time TempWeatherWind HumidityBarometerVisibility
4:00 AM
Nov 26
49 °FCool.13 mph90%30.01 "HgN/A
3:00 AM50 °FRain showers. Overcast.17 mph87%30.01 "Hg6 mi
2:00 AM51 °FCool.17 mph83%30.01 "HgN/A
1:00 AM51 °FCool.17 mph85%30.01 "HgN/A
12:00 AM51 °FCool.16 mph86%30.01 "HgN/A
11:00 PM
Nov 25
51 °FCool.14 mph90%30.03 "HgN/A
10:00 PM51 °FCool.15 mph88%30.02 "HgN/A
9:00 PM52 °FLight rain. Overcast.14 mph86%30.02 "Hg12 mi
8:00 PM51 °FCool.14 mph87%30.02 "HgN/A
7:00 PM50 °FCool.7 mph90%30.02 "HgN/A
6:00 PM51 °FCool.14 mph84%30.02 "HgN/A
5:00 PM50 °FCool.10 mph90%30.00 "HgN/A
4:00 PM49 °FCool.10 mph89%30.00 "HgN/A
3:00 PM50 °FLight rain. Overcast.14 mph90%29.99 "Hg5 mi
2:00 PM51 °FCool.14 mph91%29.96 "HgN/A
1:00 PM51 °FCool.12 mph93%29.96 "HgN/A
12:00 PM52 °FCool.10 mph92%29.98 "HgN/A
11:00 AM52 °FCool.5 mph95%29.99 "HgN/A
10:00 AM52 °FCool.3 mph93%30.01 "HgN/A
9:00 AM51 °FLight rain. Overcast.3 mph91%30.01 "Hg6 mi
8:00 AM50 °FCool.2 mph92%30.01 "HgN/A
7:00 AM51 °FCool.1 mph90%30.00 "HgN/A
Weather by CustomWeather, © 2014

See weather overviewHow to use our weather pages